Regional Weather Roundup
Issued by NWS

Home | Current Version | Previous Version | Text Only | Print | Product List | Glossary Off
Versions: 1 2 3 4 5 6 7 8 9 10 11 12 13 14 15 16 17 18 19 20 21 22 23 24 25 26 27 28 29 30 31 32 33 34 35 36 37 38 39 40 41 42 43 44 45 46 47 48 49 50

000
ASUS43 KMKX 261521
RWRWI

WISCONSIN REGIONAL WEATHER ROUNDUP
NATIONAL WEATHER SERVICE MILWAUKEE/SULLIVAN WI
1000 AM CDT TUE MAY 26 2015

NOTE: "FAIR" INDICATES FEW OR NO CLOUDS BELOW 12,000 FEET WITH NO
SIGNIFICANT WEATHER AND/OR OBSTRUCTIONS TO VISIBILITY.

WIZ001-002-006>008-014>016-023>028-261600-
NORTHWEST WISCONSIN

CITY           SKY/WX    TMP DP  RH WIND       PRES   REMARKS
SUPERIOR ARPT  CLOUDY    56  54  94 E3        29.87S
ASHLAND        CLOUDY    55  53  93 E5        29.88R
HAYWARD        CLOUDY    58  56  93 NE6       29.85S
SIREN          CLOUDY    55  55  98 N6        29.84F
CUMBERLAND     CLOUDY    57  55  94 NE3       29.84S FOG
RICE LAKE      CLOUDY    61  60  97 E3        29.85S
CHETEK         CLOUDY    62  61  97 E3        29.83F
LADYSMITH      CLOUDY    63  62  97 CALM      29.86S
EAU CLAIRE     CLOUDY    64  60  87 S12       29.81F
MENOMONIE      CLOUDY    64  62  93 N9        29.79F
NEW RICHMOND   CLOUDY    60  60  97 CALM      29.82S
OSCEOLA        CLOUDY    57  57 100 N3        29.85S
$$

WIZ003>005-009-010-017-018-261600-
NORTH CENTRAL WISCONSIN

CITY           SKY/WX    TMP DP  RH WIND       PRES   REMARKS
MANITOWISH WTR CLOUDY    64  61  88 SW5       29.85F
ARBOR VITAE    CLOUDY    62  60  94 CALM      29.86S
WOODRUFF       CLOUDY    62  60  94 CALM      29.86S
RHINELANDER    LGT RAIN  63  60  90 S6        29.87S
EAGLE RIVER    CLOUDY    64  61  90 W3        29.85F
LAND O LAKES   CLOUDY    63  60  87 SW3       29.86F
PHILLIPS       CLOUDY    62  60  93 CALM      29.85R
TOMAHAWK       CLOUDY    63  60  91 CALM      29.85F
MEDFORD        CLOUDY    63  62  96 CALM      29.84S
MERRILL        CLOUDY    67  63  86 CALM      29.86S
$$

WIZ029-030-035-036-043>047-261600-
CENTRAL WISCONSIN

CITY           SKY/WX    TMP DP  RH WIND       PRES   REMARKS
WAUSAU         CLOUDY    68  63  84 S5        29.83F
MOSINEE        SUNNY     68  64  88 CALM      29.84F
MARSHFIELD     CLOUDY    68  61  78 SE6       29.83F
STEVENS POINT  CLOUDY    67  60  79 CALM      29.83F
WAUPACA        CLOUDY    72  67  83 CALM      29.84F
WAUTOMA        CLOUDY    73  68  83 SE6       29.82F
WISC RAPIDS    CLOUDY    68  61  78 E3        29.83F
CAMP DOUGLAS   LGT RAIN  68  68 100 NE5       29.79F
$$

WIZ011>013-019>022-031-037>040-048>050-261600-
NORTHEAST WISCONSIN

CITY           SKY/WX    TMP DP  RH WIND       PRES   REMARKS
ANTIGO         CLOUDY    66  64  90 S5        29.86S
SHAWANO        CLOUDY    73  64  74 S3        29.85F
OCONTO         PTSUNNY   74  67  78 S6        29.84F
STURGEON BAY   PTSUNNY   64  57  77 SE10      29.89S
GREEN BAY      CLOUDY    75  68  78 S9        29.85F
MANITOWOC      CLOUDY    66  60  81 E12       29.88S
APPLETON       PTSUNNY   73  64  73 SE6       29.85F
CLINTONVILLE   CLOUDY    70  61  73 SW5       29.84F
OSHKOSH        CLOUDY    72  66  81 S10       29.83F
$$

WIZ032>034-041-042-053>061-261600-
SOUTHWEST WISCONSIN

CITY           SKY/WX    TMP DP  RH WIND       PRES   REMARKS
LA CROSSE      RAIN      63  60  90 CALM      29.80F FOG
SPARTA         TSTM      63  60  93 W8        29.83S
VIROQUA        CLOUDY    62  62 100 NW8       29.84R
BOSCOBEL       LGT RAIN  67  64  90 NW5       29.78F FOG
PRAIRIE DU CHI RAIN      62  60  95 NW6       29.78F
PLATTEVILLE    CLOUDY    68  66  95 SE8       29.78F
$$

WIZ056-057-062-063-064-067-068-261600-
SOUTH CENTRAL WISCONSIN

CITY           SKY/WX    TMP DP  RH WIND       PRES   REMARKS
REEDSBURG      LGT RAIN  68  66  92 SE8       29.80S
BARABOO/DELLS  CLOUDY    68  64  86 SE14      29.81F
LONE ROCK      LGT RAIN  69  66  90 E7        29.78F FOG
MINERAL POINT  LGT RAIN  68  66  94 SE6       29.79F
MADISON        CLOUDY    70  65  84 SE13      29.79F THUNDER
MIDDLETON      CLOUDY    70  67  90 E6        29.80F
WATERTOWN      CLOUDY    70  69  99 SE9       29.83F
MONROE         CLOUDY    66  64  94 SE16G22   29.80F FOG
JANESVILLE     CLOUDY    70  66  88 SE14      29.83F FOG
$$

WIZ051-052-058>065-066-070>072-261600-
SOUTHEAST WISCONSIN

CITY           SKY/WX    TMP DP  RH WIND       PRES   REMARKS
MILWAUKEE      PTSUNNY   71  64  78 S16       29.87F
WAUKESHA       CLOUDY    70  64  83 SE14      29.87F
MILWAUKEE/TIMM CLOUDY    72  63  73 S16       29.89F
RACINE         CLOUDY    65  60  84 S12       29.90F
BURLINGTON     CLOUDY    68  63  84 SE12      29.87F
KENOSHA        CLOUDY    69  64  84 SE10      29.89F
FOND DU LAC    CLOUDY    70  65  84 S14       29.85F
SHEBOYGAN      CLOUDY    64  61  90 SE10G21   29.88S
WEST BEND      CLOUDY    72  64  78 S6        29.87F
JUNEAU         CLOUDY    68  65  89 SE12      29.86F
$$

LSZ147-162-261600-
LAKE SUPERIOR

STATION/POSITION TIME  TEMP    WIND        PRES    WAVE
                       AIR SEA DIR/SP/G            HT/PER
                 (UTC) (F)     (DEG/KT/KT) (MB)    (FT/S)
W MID LAKE BUOY  1450   40 37  210/  4/  4   N/A     1
DEVILS ISLAND    1500   48     220/  4/  6   N/A
PORT WING        1440   49      CALM  /  2   N/A
SAXON HARBOR     1440   50        CALM       N/A
$$

LMZ867-665-643>646-261600-
LAKE MICHIGAN

STATION/POSITION TIME  TEMP    WIND        PRES    WAVE
                       AIR SEA DIR/SP/G            HT/PER
                 (UTC) (F)     (DEG/KT/KT) (MB)    (FT/S)
CHAMBERS ISLAND  1400   69     180/  6/ 12   N/A
N MID LAKE BUOY  1450   43 37  200/ 12/ 14   N/A     2/ 5
NORTHPORT PIER   1400   54     160/  9/ 12   N/A
SISTER BAY       1448   68     150/ 10/ 15   N/A
KEWAUNEE LAKESHO 1400   49     170/ 10/ 12   N/A
SHEBOYGAN LAKESH 1500   49     160/ 14/ 16   N/A
PORT WASHINGTON  1400   51     180/  6/  8   N/A
ATWATER BUOY     1500   54 47  150/ 14/ 16   N/A
MILWAUKEE LAKESH 1500   54     140/ 13/ 15   N/A
S MID LAKE BUOY  1450   47 38  150/ 12/ 14   N/A     1/ 3
KENOSHA   LAKESH 1500   55     180/  9/ 11   N/A
$$

TC  - TEMPERATURE IN CELSIUS
VSB - VISIBILITY IN STATUTE MILES
WCI - WIND CHILL INDEX
HX  - HEAT INDEX




USA.gov is the U.S. government's official web portal to all federal, state and local government web resources and services.